Location: Bílinka
(49.3579°N, 14.3767°E)
Time: 01:05:32
(UTC+00:00)

Lacrosse 5 rocket - Pass Details

Date: 28 January 2023
Orbit: 455 x 612 km, 57.0° (Epoch: 30 March)

Event Time Altitude Azimuth Distance (km) Brightness Sun altitude
Rises 18:43:52 0° 303° (WNW) 2,484 5.6 -28.0°
Reaches altitude 10° 18:46:04 10° 312° (NW) 1,619 4.3 -28.3°
Enters shadow 18:47:04 17° 319° (NW) 1,253 3.6 -28.5°
